Overview Statistics Trail Chart Weather Telemetry Raw packets
 

This is the latest recevied weather packets stored in our database for station/object K7DC. If no packets are shown the sender has not sent any weather packets the latest 10 day(s).

<< 15 16 17 18 19 20 21 >>
Time Temp. Humidity Pressure Rain* Wind** Luminosity Snow
1788532825 27.78° C 62% 1016.8 hPa 0 mm - 97 W/m² -
1788532521 27.22° C 63% 1016.7 hPa 0 mm - 55 W/m² -
1788532218 27.22° C 63% 1016.8 hPa 0 mm - 75 W/m² -
1788531914 27.22° C 64% 1016.6 hPa 0 mm - 56 W/m² -
1788531614 27.22° C 64% 1016.8 hPa 0 mm - 136 W/m² -
1788531309 26.67° C 67% 1016.9 hPa 0 mm - 50 W/m² -
1788531005 26.67° C 67% 1016.6 hPa 0 mm - 101 W/m² -
1788530705 26.11° C 68% 1016.6 hPa 0 mm - 86 W/m² -
1788530405 25.56° C 71% 1016.4 hPa 0 mm - 79 W/m² -
1788530104 25° C 73% 1016.5 hPa 0 mm - 50 W/m² -
1788529801 24.44° C 75% 1016.4 hPa 0 mm - 55 W/m² -
1788529501 23.89° C 78% 1016.3 hPa 0 mm - 48 W/m² -
1788529195 23.89° C 79% 1016.4 hPa 0 mm - 40 W/m² -
1788528889 22.78° C 81% 1016.1 hPa 0 mm - 33 W/m² -
1788528585 22.22° C 83% 1016.3 hPa 0 mm - 27 W/m² -
1788528280 22.22° C 85% 1016.3 hPa 0 mm - 22 W/m² -
1788527980 21.67° C 86% 1016.1 hPa 0 mm - 17 W/m² -
1788527675 21.67° C 86% 1016 hPa 0 mm - 11 W/m² -
1788527371 21.67° C 85% 1016 hPa 0 mm - 7 W/m² -
1788527070 21.67° C 85% 1015.9 hPa 0 mm - 4 W/m² -
1788526765 22.22° C 85% 1016.1 hPa 0 mm - 2 W/m² -
1788526461 22.22° C 84% 1015.8 hPa 0 mm - 1 W/m² -
1788526161 22.22° C 83% 1015.7 hPa 0 mm - 0 W/m² -
1788525857 22.22° C 83% 1015.7 hPa 0 mm - 0 W/m² -
1788525553 22.22° C 82% 1015.7 hPa 0 mm - 0 W/m² -

* Rain latest hour (hover to see other rain measurements)
** Current wind speed in m/s (hover to see current wind gust speed)